Flag for U.S.A. Weather past 2 weeks in Lakewood, New Jersey, U.S.A.

Now
50 °F

Clear.


Feels Like: N/A
Forecast: 49 / 80 °F
Wind: N/A

Location: Lakehurst Naval Air Station

Current Time: May 24, 2015 at 3:26:25 AM

Latest Report: May 24, 2015 at 3:00 AM


Visibility: 10 mi

Pressure: 30.38 "Hg

Humidity: 89%

Dew point: 47 °F

Location of LakewoodLocation

Historic Weather in Lakewood — Graph

°F

Lakewood temperature yesterday

Maximum temperature yesterday: 68 °F (at 5:00 PM)
Minimum temperature yesterday: 44 °F (at 2:00 AM)
Average temperature yesterday: 56 °F

Past Weeks' High & Low Weather Summary

 TemperatureHumidityPressure
High84 °F (May 16, 3:00 PM)100% (May 17, 1:06 AM)30.43 "Hg (May 17, 1:06 AM)
Low44 °F (May 23, 2:00 AM)20% (May 23, 4:00 PM)29.78 "Hg (May 19, 11:00 PM)
Average62 °F71%30.07 "Hg
* Reported May 15 7:00 PM — May 24 2:00 AM, Lakewood, Weather by CustomWeather, © 2015

Note: Actual official high and low records may vary slightly from our data, if they occured in-between our weather recording intervals... More about our weather records

Advertising

Lakewood weather history for previous 24 hours

 ConditionsComfort  
Time TempWeatherWind HumidityBarometerVisibility
2:00 AM
Sun, May 24
50 °FClear.N/A86%30.37 "Hg10 mi
1:00 AM48 °FClear.N/A86%30.37 "Hg10 mi
12:00 AM48 °FClear.N/A83%30.38 "Hg10 mi
11:00 PM
Sat, May 23
49 °FClear.N/A86%30.38 "Hg10 mi
10:00 PM53 °FClear.N/A77%30.37 "Hg10 mi
9:00 PM55 °FSunny.N/A69%30.36 "Hg10 mi
8:00 PM60 °FSunny.N/A56%30.36 "Hg10 mi
7:00 PM67 °FSunny.N/A22%30.35 "Hg10 mi
6:00 PM67 °FSunny.N/A20%30.36 "Hg10 mi
5:00 PM68 °FSunny.N/A20%30.36 "Hg10 mi
4:00 PM67 °FSunny.N/A20%30.37 "Hg10 mi
3:00 PM65 °FSunny.N/A23%30.39 "Hg10 mi
2:00 PM64 °FSunny.N/A23%30.40 "Hg10 mi
1:00 PM62 °FSunny.N/A25%30.42 "Hg10 mi
12:00 PM60 °FSunny.N/A27%30.42 "Hg10 mi
11:00 AM58 °FSunny.N/A33%30.43 "Hg10 mi
10:00 AM56 °FSunny.N/A34%30.42 "Hg10 mi
9:00 AM53 °FSunny.N/A38%30.42 "Hg10 mi
8:00 AM51 °FSunny.N/A44%30.39 "Hg10 mi
7:00 AM49 °FSunny.N/A48%30.35 "Hg10 mi
6:00 AM47 °FClear.N/A50%30.31 "Hg10 mi
5:00 AM47 °FClear.N/A54%30.29 "Hg10 mi
4:00 AM48 °FClear.N/A61%30.27 "Hg10 mi
3:00 AM51 °FClear.N/A61%30.24 "Hg10 mi
Weather by CustomWeather, © 2015

See weather overviewHow to use our weather pages